Time,TemperatureF,DewpointF,PressureIn,WindDirection,WindDirectionDegrees,WindSpeedMPH,WindSpeedGustMPH,Humidity,HourlyPrecipIn,Conditions,Clouds,dailyrainin,SoftwareType,DateUTC
2013-04-12 00:03:00,33.0,27.0,29.83,NNW,336,0.0,0.0,79,0.00,,,-99.99,,2013-04-12 05:03:00,
2013-04-12 00:12:00,33.0,27.0,29.83,NNW,336,0.0,0.0,79,0.00,,,-99.99,,2013-04-12 05:12:00,
2013-04-12 00:22:00,31.0,26.0,29.83,NNW,336,0.0,0.0,81,0.00,,,-99.99,,2013-04-12 05:22:00,
2013-04-12 00:32:00,32.0,27.0,29.84,NNW,336,0.0,0.0,82,0.00,,,-99.99,,2013-04-12 05:32:00,
2013-04-12 00:42:00,32.0,27.0,29.84,NNW,336,0.0,0.0,82,0.00,,,-99.99,,2013-04-12 05:42:00,
2013-04-12 00:52:00,31.0,26.0,29.83,NNW,336,0.0,0.0,82,0.00,,,-99.99,,2013-04-12 05:52:00,
2013-04-12 01:02:00,32.0,27.0,29.84,NNW,336,0.0,0.0,81,0.00,,,-99.99,,2013-04-12 06:02:00,
2013-04-12 01:12:00,32.0,27.0,29.84,NNW,336,0.0,0.0,81,0.00,,,-99.99,,2013-04-12 06:12:00,
2013-04-12 01:22:00,32.0,27.0,29.84,NNW,336,0.0,0.0,81,0.00,,,-99.99,,2013-04-12 06:22:00,
2013-04-12 01:32:00,32.0,27.0,29.84,NNW,331,0.0,0.0,80,0.00,,,-99.99,,2013-04-12 06:32:00,
2013-04-12 01:42:00,32.0,27.0,29.84,NNW,331,0.0,0.0,80,0.00,,,-99.99,,2013-04-12 06:42:00,
2013-04-12 01:52:00,32.0,27.0,29.85,WNW,298,0.0,5.0,80,0.00,,,-99.99,,2013-04-12 06:52:00,
2013-04-12 02:01:00,32.0,27.0,29.84,WNW,303,4.0,6.0,80,0.00,,,-99.99,,2013-04-12 07:01:00,
2013-04-12 02:11:00,32.0,27.0,29.84,WNW,303,4.0,6.0,80,0.00,,,-99.99,,2013-04-12 07:11:00,
2013-04-12 02:22:00,32.0,26.0,29.85,WNW,295,2.0,10.0,78,0.00,,,-99.99,,2013-04-12 07:22:00,
2013-04-12 02:32:00,32.0,26.0,29.85,WNW,291,3.0,7.0,78,0.00,,,-99.99,,2013-04-12 07:32:00,
2013-04-12 02:42:00,32.0,26.0,29.85,WNW,291,3.0,7.0,78,0.00,,,-99.99,,2013-04-12 07:42:00,
2013-04-12 02:52:00,32.0,26.0,29.85,NW,307,3.0,7.0,79,0.00,,,-99.99,,2013-04-12 07:52:00,
2013-04-12 03:03:00,32.0,26.0,29.86,NW,305,3.0,9.0,79,0.00,,,-99.99,,2013-04-12 08:03:00,
2013-04-12 03:12:00,32.0,26.0,29.86,NW,305,3.0,9.0,79,0.00,,,-99.99,,2013-04-12 08:12:00,
2013-04-12 03:22:00,31.0,26.0,29.85,NNW,343,3.0,7.0,80,0.00,,,-99.99,,2013-04-12 08:22:00,
2013-04-12 03:32:00,31.0,26.0,29.86,WNW,298,2.0,7.0,81,0.00,,,-99.99,,2013-04-12 08:32:00,
2013-04-12 03:42:00,31.0,26.0,29.86,WNW,298,2.0,7.0,81,0.00,,,-99.99,,2013-04-12 08:42:00,
2013-04-12 03:52:00,30.0,25.0,29.86,NW,309,0.0,0.0,82,0.00,,,-99.99,,2013-04-12 08:52:00,
2013-04-12 04:02:00,29.0,25.0,29.86,NW,309,0.0,0.0,83,0.00,,,-99.99,,2013-04-12 09:02:00,
2013-04-12 04:12:00,29.0,25.0,29.86,NW,309,0.0,0.0,83,0.00,,,-99.99,,2013-04-12 09:12:00,
2013-04-12 04:22:00,29.0,25.0,29.86,NW,309,0.0,0.0,84,0.00,,,-99.99,,2013-04-12 09:22:00,
2013-04-12 04:33:00,29.0,25.0,29.86,NW,309,0.0,0.0,85,0.00,,,-99.99,,2013-04-12 09:33:00,
2013-04-12 04:43:00,29.0,25.0,29.86,NW,309,0.0,0.0,85,0.00,,,-99.99,,2013-04-12 09:43:00,
2013-04-12 04:52:00,29.0,25.0,29.87,NW,309,0.0,0.0,85,0.00,,,-99.99,,2013-04-12 09:52:00,
2013-04-12 05:03:00,29.0,25.0,29.87,NW,309,0.0,0.0,85,0.00,,,-99.99,,2013-04-12 10:03:00,
2013-04-12 05:12:00,29.0,25.0,29.88,NW,304,0.0,0.0,83,0.00,,,-99.99,,2013-04-12 10:12:00,
2013-04-12 05:23:00,29.0,25.0,29.88,NW,304,0.0,0.0,83,0.00,,,-99.99,,2013-04-12 10:23:00,
2013-04-12 05:34:00,29.0,25.0,29.88,NW,310,1.0,4.0,83,0.00,,,-99.99,,2013-04-12 10:34:00,
2013-04-12 05:42:00,29.0,25.0,29.88,NW,310,1.0,4.0,83,0.00,,,-99.99,,2013-04-12 10:42:00,
2013-04-12 05:52:00,29.0,24.0,29.88,NW,304,1.0,3.0,82,0.00,,,-99.99,,2013-04-12 10:52:00,
2013-04-12 06:02:00,29.0,25.0,29.88,WNW,298,1.0,3.0,83,0.00,,,-99.99,,2013-04-12 11:02:00,
2013-04-12 06:13:00,29.0,25.0,29.88,WNW,298,1.0,3.0,83,0.00,,,-99.99,,2013-04-12 11:13:00,
2013-04-12 06:22:00,29.0,25.0,29.89,WNW,300,1.0,3.0,83,0.00,,,-99.99,,2013-04-12 11:22:00,
2013-04-12 06:32:00,29.0,25.0,29.89,NW,305,0.0,2.0,83,0.00,,,-99.99,,2013-04-12 11:32:00,
2013-04-12 06:42:00,29.0,25.0,29.89,NW,305,0.0,2.0,83,0.00,,,-99.99,,2013-04-12 11:42:00,
2013-04-12 06:52:00,28.0,24.0,29.89,WNW,302,0.0,2.0,84,0.00,,,-99.99,,2013-04-12 11:52:00,
2013-04-12 07:02:00,29.0,25.0,29.90,WNW,300,1.0,3.0,84,0.00,,,-99.99,,2013-04-12 12:02:00,
2013-04-12 07:13:00,29.0,25.0,29.90,WNW,300,1.0,3.0,84,0.00,,,-99.99,,2013-04-12 12:13:00,
2013-04-12 07:22:00,28.0,24.0,29.91,West,281,0.0,4.0,83,0.00,,,-99.99,,2013-04-12 12:22:00,
2013-04-12 07:33:00,29.0,25.0,29.92,WNW,296,0.0,2.0,83,0.00,,,-99.99,,2013-04-12 12:33:00,
2013-04-12 07:42:00,29.0,25.0,29.92,WNW,296,0.0,2.0,83,0.00,,,-99.99,,2013-04-12 12:42:00,
2013-04-12 07:52:00,29.0,25.0,29.92,NW,318,2.0,5.0,83,0.00,,,-99.99,,2013-04-12 12:52:00,
2013-04-12 08:03:00,30.0,25.0,29.92,NNW,344,3.0,6.0,82,0.00,,,-99.99,,2013-04-12 13:03:00,
2013-04-12 08:12:00,30.0,25.0,29.92,NNW,344,3.0,6.0,82,0.00,,,-99.99,,2013-04-12 13:12:00,
2013-04-12 08:22:00,31.0,26.0,29.93,NW,326,2.0,7.0,81,0.00,,,-99.99,,2013-04-12 13:22:00,
2013-04-12 08:32:00,31.0,26.0,29.92,NW,313,2.0,7.0,80,0.00,,,-99.99,,2013-04-12 13:32:00,
2013-04-12 08:42:00,31.0,26.0,29.92,NW,313,2.0,7.0,80,0.00,,,-99.99,,2013-04-12 13:42:00,
2013-04-12 08:52:00,33.0,27.0,29.93,NW,325,1.0,4.0,79,0.00,,,-99.99,,2013-04-12 13:52:00,
2013-04-12 09:03:00,34.0,28.0,29.94,NNW,333,4.0,10.0,77,0.00,,,-99.99,,2013-04-12 14:03:00,
2013-04-12 09:13:00,34.0,28.0,29.94,NNW,333,4.0,10.0,77,0.00,,,-99.99,,2013-04-12 14:13:00,
2013-04-12 09:22:00,36.0,29.0,29.94,NNW,348,3.0,9.0,76,0.00,,,-99.99,,2013-04-12 14:22:00,
2013-04-12 09:32:00,37.0,30.0,29.94,North,350,1.0,13.0,75,0.00,,,-99.99,,2013-04-12 14:32:00,
2013-04-12 09:42:00,37.0,30.0,29.94,North,350,1.0,13.0,75,0.00,,,-99.99,,2013-04-12 14:42:00,
2013-04-12 09:52:00,38.0,30.0,29.94,NNW,336,7.0,12.0,72,0.00,,,-99.99,,2013-04-12 14:52:00,
2013-04-12 10:02:00,39.0,31.0,29.95,NNW,336,3.0,10.0,72,0.00,,,-99.99,,2013-04-12 15:02:00,
2013-04-12 10:12:00,39.0,31.0,29.95,NNW,336,3.0,10.0,72,0.00,,,-99.99,,2013-04-12 15:12:00,
2013-04-12 10:33:00,41.0,32.0,29.96,NNW,348,3.0,9.0,71,0.00,,,-99.99,,2013-04-12 15:33:00,
2013-04-12 10:43:00,41.0,32.0,29.96,NNW,348,3.0,9.0,71,0.00,,,-99.99,,2013-04-12 15:43:00,
2013-04-12 10:53:00,42.0,33.0,29.95,NW,319,4.0,9.0,69,0.00,,,-99.99,,2013-04-12 15:53:00,
2013-04-12 11:03:00,42.0,31.0,29.96,NNE,25,5.0,14.0,66,0.00,,,-99.99,,2013-04-12 16:03:00,
2013-04-12 11:13:00,42.0,31.0,29.96,NNE,25,5.0,14.0,66,0.00,,,-99.99,,2013-04-12 16:13:00,
2013-04-12 11:23:00,43.0,32.0,29.96,NNE,15,6.0,11.0,65,0.00,,,-99.99,,2013-04-12 16:23:00,
2013-04-12 11:33:00,44.0,32.0,29.96,NW,309,5.0,14.0,62,0.00,,,-99.99,,2013-04-12 16:33:00,
2013-04-12 11:42:00,44.0,32.0,29.96,NW,309,5.0,14.0,62,0.00,,,-99.99,,2013-04-12 16:42:00,
2013-04-12 11:52:00,46.0,34.0,29.97,NNW,330,4.0,13.0,62,0.00,,,-99.99,,2013-04-12 16:52:00,
2013-04-12 12:03:00,46.0,33.0,29.97,NE,40,3.0,11.0,61,0.00,,,-99.99,,2013-04-12 17:03:00,
2013-04-12 12:12:00,46.0,33.0,29.97,NE,40,3.0,11.0,61,0.00,,,-99.99,,2013-04-12 17:12:00,
2013-04-12 12:23:00,47.0,33.0,29.97,NNW,332,4.0,10.0,59,0.00,,,-99.99,,2013-04-12 17:23:00,
2013-04-12 12:33:00,46.0,33.0,29.97,WNW,300,7.0,13.0,61,0.00,,,-99.99,,2013-04-12 17:33:00,
2013-04-12 12:44:00,46.0,33.0,29.97,WNW,300,7.0,13.0,61,0.00,,,-99.99,,2013-04-12 17:44:00,
2013-04-12 12:57:00,46.0,33.0,29.97,NW,314,1.0,12.0,61,0.00,,,-99.99,,2013-04-12 17:57:00,
2013-04-12 13:10:00,47.0,35.0,29.97,West,277,3.0,12.0,63,0.00,,,-99.99,,2013-04-12 18:10:00,
2013-04-12 14:26:00,51.0,37.0,29.95,North,360,3.0,6.0,59,0.00,,,-99.99,,2013-04-12 19:26:00,
2013-04-12 14:32:00,52.0,36.0,29.95,NW,322,5.0,12.0,55,0.00,,,-99.99,,2013-04-12 19:32:00,
2013-04-12 14:43:00,52.0,36.0,29.95,NW,322,5.0,12.0,55,0.00,,,-99.99,,2013-04-12 19:43:00,
2013-04-12 14:52:00,53.0,36.0,29.94,North,351,1.0,10.0,52,0.00,,,-99.99,,2013-04-12 19:52:00,
2013-04-12 15:02:00,53.0,34.0,29.94,West,274,3.0,14.0,49,0.00,,,-99.99,,2013-04-12 20:02:00,
2013-04-12 15:12:00,53.0,34.0,29.94,West,274,3.0,14.0,49,0.00,,,-99.99,,2013-04-12 20:12:00,
2013-04-12 15:22:00,54.0,36.0,29.94,West,273,2.0,6.0,50,0.00,,,-99.99,,2013-04-12 20:22:00,
2013-04-12 15:32:00,55.0,37.0,29.94,North,351,5.0,11.0,50,0.00,,,0.00,,2013-04-12 20:32:00,
2013-04-12 15:42:00,55.0,37.0,29.94,North,351,5.0,11.0,50,0.00,,,0.00,,2013-04-12 20:42:00,
2013-04-12 15:52:00,54.0,34.0,29.93,NNW,342,0.0,10.0,47,0.00,,,0.00,,2013-04-12 20:52:00,
2013-04-12 16:02:00,56.0,36.0,29.93,NW,309,4.0,9.0,46,0.00,,,0.00,,2013-04-12 21:02:00,
2013-04-12 16:12:00,56.0,36.0,29.93,NW,309,4.0,9.0,46,0.00,,,0.00,,2013-04-12 21:12:00,
2013-04-12 16:22:00,56.0,39.0,29.92,NNW,344,3.0,10.0,52,0.00,,,0.00,,2013-04-12 21:22:00,
2013-04-12 16:33:00,56.0,35.0,29.92,NNE,17,6.0,12.0,45,0.00,,,0.00,,2013-04-12 21:33:00,
2013-04-12 16:43:00,56.0,35.0,29.92,NNE,17,6.0,12.0,45,0.00,,,0.00,,2013-04-12 21:43:00,
2013-04-12 16:52:00,56.0,35.0,29.92,West,274,2.0,7.0,45,0.00,,,0.00,,2013-04-12 21:52:00,
2013-04-12 17:02:00,57.0,36.0,29.91,WNW,300,2.0,10.0,46,0.00,,,0.00,,2013-04-12 22:02:00,
2013-04-12 17:13:00,57.0,36.0,29.91,WNW,300,2.0,10.0,46,0.00,,,0.00,,2013-04-12 22:13:00,
2013-04-12 17:22:00,57.0,36.0,29.94,NW,309,3.0,6.0,45,0.00,,,0.00,,2013-04-12 22:22:00,
2013-04-12 17:32:00,58.0,38.0,29.93,NNW,346,3.0,7.0,48,0.00,,,0.00,,2013-04-12 22:32:00,
2013-04-12 17:42:00,58.0,38.0,29.93,NNW,346,3.0,7.0,48,0.00,,,0.00,,2013-04-12 22:42:00,
2013-04-12 17:52:00,57.0,36.0,29.93,NNW,341,4.0,10.0,46,0.00,,,0.00,,2013-04-12 22:52:00,
2013-04-12 18:03:00,57.0,36.0,29.93,NW,326,3.0,8.0,46,0.00,,,0.00,,2013-04-12 23:03:00,
2013-04-12 18:12:00,57.0,36.0,29.93,NW,326,3.0,8.0,46,0.00,,,0.00,,2013-04-12 23:12:00,
2013-04-12 18:22:00,56.0,35.0,29.93,WNW,298,2.0,8.0,45,0.00,,,0.00,,2013-04-12 23:22:00,
2013-04-12 18:32:00,55.0,35.0,29.93,NW,326,4.0,9.0,46,0.00,,,0.00,,2013-04-12 23:32:00,
2013-04-12 18:42:00,55.0,35.0,29.93,NW,326,4.0,9.0,46,0.00,,,0.00,,2013-04-12 23:42:00,
2013-04-12 18:52:00,55.0,36.0,29.94,North,9,0.0,1.0,49,0.00,,,0.00,,2013-04-12 23:52:00,
2013-04-12 19:02:00,55.0,36.0,29.94,NNE,13,0.0,1.0,48,0.00,,,0.00,,2013-04-13 00:02:00,
2013-04-12 19:12:00,55.0,36.0,29.94,NNE,13,0.0,1.0,48,0.00,,,0.00,,2013-04-13 00:12:00,
2013-04-12 19:22:00,56.0,39.0,29.93,NE,34,0.0,1.0,53,0.00,,,0.00,,2013-04-13 00:22:00,
2013-04-12 19:32:00,55.0,38.0,29.93,NE,45,0.0,1.0,53,0.00,,,0.00,,2013-04-13 00:32:00,
2013-04-12 19:42:00,55.0,38.0,29.93,NE,45,0.0,1.0,53,0.00,,,0.00,,2013-04-13 00:42:00,
2013-04-12 19:52:00,53.0,37.0,29.93,NE,45,0.0,0.0,54,0.00,,,0.00,,2013-04-13 00:52:00,
2013-04-12 20:02:00,52.0,36.0,29.93,NE,45,0.0,0.0,55,0.00,,,0.00,,2013-04-13 01:02:00,
2013-04-12 20:12:00,52.0,36.0,29.93,NE,45,0.0,0.0,55,0.00,,,0.00,,2013-04-13 01:12:00,
2013-04-12 20:22:00,52.0,37.0,29.94,NE,45,0.0,0.0,57,0.00,,,0.00,,2013-04-13 01:22:00,
2013-04-12 20:32:00,50.0,37.0,29.94,NE,45,0.0,0.0,61,0.00,,,0.00,,2013-04-13 01:32:00,
2013-04-12 20:42:00,50.0,37.0,29.94,NE,45,0.0,0.0,61,0.00,,,0.00,,2013-04-13 01:42:00,
2013-04-12 20:52:00,49.0,37.0,29.95,NE,45,0.0,0.0,62,0.00,,,0.00,,2013-04-13 01:52:00,
2013-04-12 21:02:00,48.0,36.0,29.95,NE,45,0.0,0.0,63,0.00,,,0.00,,2013-04-13 02:02:00,
2013-04-12 21:12:00,48.0,36.0,29.95,NE,45,0.0,0.0,63,0.00,,,0.00,,2013-04-13 02:12:00,
2013-04-12 21:22:00,45.0,34.0,29.95,NE,45,0.0,0.0,65,0.00,,,0.00,,2013-04-13 02:22:00,
2013-04-12 21:32:00,44.0,34.0,29.97,NE,45,0.0,0.0,68,0.00,,,0.00,,2013-04-13 02:32:00,
2013-04-12 21:42:00,44.0,34.0,29.97,NE,45,0.0,0.0,68,0.00,,,0.00,,2013-04-13 02:42:00,
2013-04-12 21:52:00,43.0,35.0,29.98,NE,45,0.0,0.0,73,0.00,,,0.00,,2013-04-13 02:52:00,
2013-04-12 22:02:00,42.0,35.0,29.99,NE,45,0.0,0.0,75,0.00,,,0.00,,2013-04-13 03:02:00,
2013-04-12 22:12:00,42.0,35.0,29.99,NE,45,0.0,0.0,75,0.00,,,0.00,,2013-04-13 03:12:00,
2013-04-12 22:22:00,43.0,35.0,30.00,NE,45,0.0,0.0,73,0.00,,,0.00,,2013-04-13 03:22:00,
2013-04-12 22:33:00,43.0,35.0,30.01,NE,45,0.0,0.0,74,0.00,,,0.00,,2013-04-13 03:33:00,
2013-04-12 22:42:00,43.0,35.0,30.01,NE,45,0.0,0.0,74,0.00,,,0.00,,2013-04-13 03:42:00,
2013-04-12 22:53:00,43.0,35.0,30.01,NE,45,0.0,0.0,73,0.00,,,0.00,,2013-04-13 03:53:00,
2013-04-12 23:03:00,44.0,37.0,30.02,NE,45,0.0,0.0,76,0.00,,,0.00,,2013-04-13 04:03:00,
2013-04-12 23:12:00,44.0,37.0,30.02,NE,45,0.0,0.0,76,0.00,,,0.00,,2013-04-13 04:12:00,
2013-04-12 23:23:00,44.0,37.0,30.02,NE,45,0.0,0.0,77,0.00,,,0.00,,2013-04-13 04:23:00,
2013-04-12 23:33:00,43.0,36.0,30.01,NE,45,0.0,0.0,76,0.00,,,0.00,,2013-04-13 04:33:00,
2013-04-12 23:42:00,43.0,36.0,30.01,NE,45,0.0,0.0,76,0.00,,,0.00,,2013-04-13 04:42:00,
2013-04-12 23:53:00,43.0,36.0,30.01,NE,45,0.0,0.0,75,0.00,,,0.00,,2013-04-13 04:53:00,